Time,TemperatureF,DewpointF,PressureIn,WindDirection,WindDirectionDegrees,WindSpeedMPH,WindSpeedGustMPH,Humidity,HourlyPrecipIn,Conditions,Clouds,dailyrainin,SoftwareType,DateUTC
2013-06-03 00:03:00,45.0,40.0,29.96,ENE,78,0.0,0.0,83,0.00,,,0.02,,2013-06-03 04:03:00,
2013-06-03 00:13:00,45.0,40.0,29.96,ENE,78,0.0,0.0,83,0.00,,,0.02,,2013-06-03 04:13:00,
2013-06-03 00:23:00,45.0,40.0,29.96,ENE,78,0.0,0.0,84,0.00,,,0.02,,2013-06-03 04:23:00,
2013-06-03 00:33:00,44.0,40.0,29.96,ESE,115,0.0,1.0,85,0.00,,,0.02,,2013-06-03 04:33:00,
2013-06-03 00:42:00,44.0,40.0,29.96,ESE,115,0.0,1.0,85,0.00,,,0.02,,2013-06-03 04:42:00,
2013-06-03 00:53:00,44.0,40.0,29.97,ESE,115,0.0,0.0,86,0.00,,,0.02,,2013-06-03 04:53:00,
2013-06-03 01:02:00,44.0,40.0,29.97,ESE,115,0.0,0.0,86,0.00,,,0.02,,2013-06-03 05:02:00,
2013-06-03 01:12:00,44.0,40.0,29.97,ESE,114,0.0,0.0,86,0.00,,,0.02,,2013-06-03 05:12:00,
2013-06-03 01:22:00,44.0,40.0,29.97,ESE,114,0.0,0.0,86,0.00,,,0.02,,2013-06-03 05:22:00,
2013-06-03 01:32:00,43.0,39.0,29.97,ESE,115,0.0,0.0,87,0.00,,,0.02,,2013-06-03 05:32:00,
2013-06-03 01:42:00,43.0,39.0,29.97,ESE,115,0.0,0.0,87,0.00,,,0.02,,2013-06-03 05:42:00,
2013-06-03 01:52:00,43.0,39.0,29.97,ESE,115,0.0,0.0,87,0.00,,,0.02,,2013-06-03 05:52:00,
2013-06-03 02:02:00,42.0,39.0,29.98,ESE,115,0.0,0.0,89,0.00,,,0.02,,2013-06-03 06:02:00,
2013-06-03 02:12:00,42.0,39.0,29.98,ESE,115,0.0,0.0,89,0.00,,,0.02,,2013-06-03 06:12:00,
2013-06-03 02:22:00,41.0,38.0,29.98,ESE,115,0.0,0.0,90,0.00,,,0.02,,2013-06-03 06:22:00,
2013-06-03 02:32:00,41.0,39.0,29.97,ESE,115,0.0,0.0,91,0.00,,,0.01,,2013-06-03 06:32:00,
2013-06-03 02:42:00,41.0,39.0,29.97,ESE,115,0.0,0.0,91,0.00,,,0.01,,2013-06-03 06:42:00,
2013-06-03 02:53:00,41.0,39.0,29.98,ESE,114,0.0,0.0,91,0.00,,,0.01,,2013-06-03 06:53:00,
2013-06-03 03:02:00,41.0,39.0,29.98,ESE,114,0.0,0.0,91,0.00,,,0.01,,2013-06-03 07:02:00,
2013-06-03 03:12:00,41.0,39.0,29.98,ESE,114,0.0,0.0,91,0.00,,,0.01,,2013-06-03 07:12:00,
2013-06-03 03:22:00,40.0,38.0,29.97,ESE,115,0.0,0.0,92,0.00,,,0.01,,2013-06-03 07:22:00,
2013-06-03 03:32:00,40.0,38.0,29.97,ESE,115,0.0,0.0,92,0.00,,,0.01,,2013-06-03 07:32:00,
2013-06-03 03:42:00,40.0,38.0,29.97,ESE,115,0.0,0.0,92,0.00,,,0.01,,2013-06-03 07:42:00,
2013-06-03 03:52:00,40.0,38.0,29.97,ESE,115,0.0,0.0,92,0.00,,,0.01,,2013-06-03 07:52:00,
2013-06-03 04:02:00,39.0,37.0,29.97,ESE,114,0.0,0.0,92,0.00,,,0.01,,2013-06-03 08:02:00,
2013-06-03 04:12:00,39.0,37.0,29.97,ESE,114,0.0,0.0,92,0.00,,,0.01,,2013-06-03 08:12:00,
2013-06-03 04:22:00,39.0,37.0,29.98,ESE,115,0.0,0.0,93,0.00,,,0.01,,2013-06-03 08:22:00,
2013-06-03 04:32:00,39.0,37.0,29.97,ESE,114,0.0,0.0,93,0.00,,,0.01,,2013-06-03 08:32:00,
2013-06-03 04:42:00,39.0,37.0,29.97,ESE,114,0.0,0.0,93,0.00,,,0.01,,2013-06-03 08:42:00,
2013-06-03 04:52:00,39.0,37.0,29.97,ESE,115,0.0,0.0,93,0.00,,,0.01,,2013-06-03 08:52:00,
2013-06-03 05:02:00,39.0,37.0,29.97,ESE,115,0.0,0.0,93,0.00,,,0.01,,2013-06-03 09:02:00,
2013-06-03 05:12:00,39.0,37.0,29.97,ESE,115,0.0,0.0,93,0.00,,,0.01,,2013-06-03 09:12:00,
2013-06-03 05:22:00,39.0,37.0,29.98,ESE,115,0.0,0.0,93,0.00,,,0.01,,2013-06-03 09:22:00,
2013-06-03 05:33:00,39.0,37.0,29.97,ESE,115,0.0,0.0,93,0.00,,,0.01,,2013-06-03 09:33:00,
2013-06-03 05:43:00,39.0,37.0,29.97,ESE,115,0.0,0.0,93,0.00,,,0.01,,2013-06-03 09:43:00,
2013-06-03 05:52:00,39.0,37.0,29.97,ESE,115,0.0,0.0,93,0.00,,,0.01,,2013-06-03 09:52:00,
2013-06-03 06:03:00,39.0,37.0,29.99,ESE,115,0.0,0.0,94,0.00,,,0.01,,2013-06-03 10:03:00,
2013-06-03 06:13:00,39.0,37.0,29.99,ESE,115,0.0,0.0,94,0.00,,,0.01,,2013-06-03 10:13:00,
2013-06-03 06:22:00,38.0,36.0,29.99,ESE,114,0.0,0.0,94,0.00,,,0.01,,2013-06-03 10:22:00,
2013-06-03 06:33:00,38.0,36.0,29.99,ESE,115,0.0,0.0,94,0.00,,,0.01,,2013-06-03 10:33:00,
2013-06-03 06:42:00,38.0,36.0,29.99,ESE,115,0.0,0.0,94,0.00,,,0.01,,2013-06-03 10:42:00,
2013-06-03 06:52:00,38.0,36.0,30.00,ESE,114,0.0,0.0,94,0.00,,,0.01,,2013-06-03 10:52:00,
2013-06-03 07:02:00,38.0,36.0,30.00,ESE,115,0.0,0.0,94,0.00,,,0.01,,2013-06-03 11:02:00,
2013-06-03 07:12:00,38.0,36.0,30.00,ESE,115,0.0,0.0,94,0.00,,,0.01,,2013-06-03 11:12:00,
2013-06-03 07:22:00,39.0,37.0,30.00,ESE,115,0.0,0.0,94,0.00,,,0.01,,2013-06-03 11:22:00,
2013-06-03 07:32:00,40.0,39.0,30.01,ESE,115,0.0,1.0,95,0.00,,,0.01,,2013-06-03 11:32:00,
2013-06-03 07:42:00,40.0,39.0,30.01,ESE,115,0.0,1.0,95,0.00,,,0.01,,2013-06-03 11:42:00,
2013-06-03 07:52:00,41.0,39.0,30.01,North,349,0.0,0.0,94,0.00,,,0.01,,2013-06-03 11:52:00,
2013-06-03 08:02:00,43.0,41.0,30.01,WNW,299,0.0,2.0,93,0.00,,,0.01,,2013-06-03 12:02:00,
2013-06-03 08:12:00,43.0,41.0,30.01,WNW,299,0.0,2.0,93,0.00,,,0.01,,2013-06-03 12:12:00,
2013-06-03 08:22:00,44.0,42.0,30.01,West,270,0.0,2.0,92,0.00,,,0.01,,2013-06-03 12:22:00,
2013-06-03 08:32:00,45.0,41.0,30.01,West,259,0.0,3.0,87,0.00,,,0.01,,2013-06-03 12:32:00,
2013-06-03 08:42:00,45.0,41.0,30.01,West,259,0.0,3.0,87,0.00,,,0.01,,2013-06-03 12:42:00,
2013-06-03 08:52:00,47.0,41.0,30.01,WSW,258,0.0,4.0,79,0.00,,,0.01,,2013-06-03 12:52:00,
2013-06-03 09:02:00,48.0,41.0,30.01,NNE,22,0.0,0.0,77,0.00,,,0.01,,2013-06-03 13:02:00,
2013-06-03 09:12:00,48.0,41.0,30.01,NNE,22,0.0,0.0,77,0.00,,,0.01,,2013-06-03 13:12:00,
2013-06-03 09:22:00,49.0,41.0,30.02,ENE,59,0.0,4.0,75,0.00,,,0.01,,2013-06-03 13:22:00,
2013-06-03 09:32:00,50.0,42.0,30.02,West,277,0.0,2.0,73,0.00,,,0.01,,2013-06-03 13:32:00,
2013-06-03 09:42:00,50.0,42.0,30.02,West,277,0.0,2.0,73,0.00,,,0.01,,2013-06-03 13:42:00,
2013-06-03 09:52:00,51.0,41.0,30.02,WNW,298,0.0,0.0,69,0.00,,,0.01,,2013-06-03 13:52:00,
2013-06-03 10:02:00,52.0,40.0,30.02,West,273,0.0,2.0,64,0.00,,,0.00,,2013-06-03 14:02:00,
2013-06-03 10:13:00,52.0,40.0,30.02,West,273,0.0,2.0,64,0.00,,,0.00,,2013-06-03 14:13:00,
2013-06-03 10:22:00,54.0,44.0,30.02,North,0,1.0,5.0,69,0.00,,,0.00,,2013-06-03 14:22:00,
2013-06-03 10:32:00,54.0,42.0,30.02,NW,309,0.0,4.0,64,0.00,,,0.00,,2013-06-03 14:32:00,
2013-06-03 10:42:00,54.0,42.0,30.02,NW,309,0.0,4.0,64,0.00,,,0.00,,2013-06-03 14:42:00,
2013-06-03 10:52:00,54.0,41.0,30.01,WNW,295,0.0,5.0,61,0.00,,,0.00,,2013-06-03 14:52:00,
2013-06-03 11:02:00,55.0,41.0,30.01,WSW,244,3.0,4.0,60,0.00,,,0.00,,2013-06-03 15:02:00,
2013-06-03 11:12:00,55.0,41.0,30.01,WSW,244,3.0,4.0,60,0.00,,,0.00,,2013-06-03 15:12:00,
2013-06-03 11:22:00,56.0,42.0,30.01,West,262,3.0,5.0,60,0.00,,,0.00,,2013-06-03 15:22:00,
2013-06-03 11:33:00,57.0,43.0,30.01,West,263,0.0,3.0,60,0.00,,,0.00,,2013-06-03 15:33:00,
2013-06-03 11:43:00,57.0,43.0,30.01,West,263,0.0,3.0,60,0.00,,,0.00,,2013-06-03 15:43:00,
2013-06-03 11:53:00,57.0,44.0,30.01,West,262,0.0,6.0,62,0.00,,,0.00,,2013-06-03 15:53:00,
2013-06-03 12:03:00,58.0,43.0,30.01,WSW,244,3.0,7.0,57,0.00,,,0.00,,2013-06-03 16:03:00,
2013-06-03 12:13:00,58.0,43.0,30.01,WSW,244,3.0,7.0,57,0.00,,,0.00,,2013-06-03 16:13:00,
2013-06-03 12:23:00,59.0,43.0,30.01,WSW,251,6.0,9.0,56,0.00,,,0.00,,2013-06-03 16:23:00,
2013-06-03 12:33:00,60.0,44.0,30.00,WNW,285,2.0,9.0,56,0.00,,,0.00,,2013-06-03 16:33:00,
2013-06-03 12:42:00,60.0,44.0,30.00,SW,214,3.0,6.0,56,0.00,,,0.00,,2013-06-03 16:42:00,
2013-06-03 12:53:00,60.0,44.0,30.00,SW,214,3.0,6.0,56,0.00,,,0.00,,2013-06-03 16:53:00,
2013-06-03 13:02:00,61.0,43.0,30.00,WSW,246,0.0,6.0,52,0.00,,,0.00,,2013-06-03 17:02:00,
2013-06-03 13:12:00,61.0,43.0,30.00,WSW,246,0.0,6.0,52,0.00,,,0.00,,2013-06-03 17:12:00,
2013-06-03 13:22:00,61.0,43.0,30.00,West,275,4.0,9.0,52,0.00,,,0.00,,2013-06-03 17:22:00,
2013-06-03 13:33:00,62.0,44.0,29.99,SW,217,3.0,8.0,51,0.00,,,0.00,,2013-06-03 17:33:00,
2013-06-03 13:42:00,62.0,44.0,29.99,SW,217,3.0,8.0,51,0.00,,,0.00,,2013-06-03 17:42:00,
2013-06-03 13:52:00,62.0,44.0,29.99,West,259,1.0,4.0,52,0.00,,,0.00,,2013-06-03 17:52:00,
2013-06-03 14:02:00,63.0,46.0,29.98,WNW,288,0.0,4.0,53,0.00,,,0.00,,2013-06-03 18:02:00,
2013-06-03 14:12:00,63.0,46.0,29.98,West,259,0.0,3.0,53,0.00,,,0.00,,2013-06-03 18:12:00,
2013-06-03 14:22:00,63.0,46.0,29.98,West,259,0.0,3.0,53,0.00,,,0.00,,2013-06-03 18:22:00,
2013-06-03 14:32:00,64.0,43.0,29.98,WNW,296,0.0,10.0,47,0.00,,,0.00,,2013-06-03 18:32:00,
2013-06-03 14:43:00,64.0,43.0,29.98,WNW,296,0.0,10.0,47,0.00,,,0.00,,2013-06-03 18:43:00,
2013-06-03 14:52:00,65.0,45.0,29.97,WSW,252,0.0,5.0,49,0.00,,,0.00,,2013-06-03 18:52:00,
2013-06-03 15:03:00,66.0,46.0,29.97,West,277,3.0,5.0,49,0.00,,,0.00,,2013-06-03 19:03:00,
2013-06-03 15:12:00,66.0,46.0,29.97,West,277,3.0,5.0,49,0.00,,,0.00,,2013-06-03 19:12:00,
2013-06-03 15:23:00,66.0,46.0,29.97,WNW,293,2.0,9.0,49,0.00,,,0.00,,2013-06-03 19:23:00,
2013-06-03 15:32:00,66.0,46.0,29.97,WNW,293,2.0,9.0,49,0.00,,,0.00,,2013-06-03 19:32:00,
2013-06-03 15:42:00,66.0,46.0,29.97,WNW,293,2.0,9.0,49,0.00,,,0.00,,2013-06-03 19:42:00,
2013-06-03 15:53:00,66.0,45.0,29.96,North,355,0.0,7.0,46,0.00,,,0.00,,2013-06-03 19:53:00,
2013-06-03 16:02:00,66.0,47.0,29.96,West,261,0.0,5.0,51,0.00,,,0.00,,2013-06-03 20:02:00,
2013-06-03 16:12:00,66.0,47.0,29.96,West,261,0.0,5.0,51,0.00,,,0.00,,2013-06-03 20:12:00,
2013-06-03 16:22:00,66.0,45.0,29.96,North,0,0.0,5.0,47,0.00,,,0.00,,2013-06-03 20:22:00,
2013-06-03 16:33:00,67.0,46.0,29.96,West,273,2.0,7.0,46,0.00,,,0.00,,2013-06-03 20:33:00,
2013-06-03 16:43:00,67.0,46.0,29.96,West,273,2.0,7.0,46,0.00,,,0.00,,2013-06-03 20:43:00,
2013-06-03 16:52:00,67.0,48.0,29.95,West,261,0.0,7.0,50,0.00,,,0.00,,2013-06-03 20:52:00,
2013-06-03 17:02:00,68.0,48.0,29.95,NNE,30,2.0,7.0,48,0.00,,,0.00,,2013-06-03 21:02:00,
2013-06-03 17:12:00,68.0,48.0,29.95,NNE,30,2.0,7.0,48,0.00,,,0.00,,2013-06-03 21:12:00,
2013-06-03 17:22:00,69.0,47.0,29.95,WSW,249,0.0,5.0,45,0.00,,,0.00,,2013-06-03 21:22:00,
2013-06-03 17:33:00,68.0,46.0,29.95,WSW,249,0.0,5.0,45,0.00,,,0.00,,2013-06-03 21:33:00,
2013-06-03 17:43:00,68.0,46.0,29.95,WSW,249,0.0,5.0,45,0.00,,,0.00,,2013-06-03 21:43:00,
2013-06-03 17:53:00,70.0,47.0,29.94,WNW,300,0.0,6.0,44,0.00,,,0.00,,2013-06-03 21:53:00,
2013-06-03 18:03:00,69.0,46.0,29.94,West,259,2.0,9.0,43,0.00,,,0.00,,2013-06-03 22:03:00,
2013-06-03 18:12:00,69.0,46.0,29.94,West,259,2.0,9.0,43,0.00,,,0.00,,2013-06-03 22:12:00,
2013-06-03 18:22:00,68.0,47.0,29.94,NE,54,0.0,2.0,47,0.00,,,0.00,,2013-06-03 22:22:00,
2013-06-03 18:33:00,68.0,47.0,29.94,NE,54,0.0,2.0,47,0.00,,,0.00,,2013-06-03 22:33:00,
2013-06-03 18:42:00,68.0,47.0,29.94,NE,54,0.0,2.0,47,0.00,,,0.00,,2013-06-03 22:42:00,
2013-06-03 18:53:00,67.0,46.0,29.94,West,259,2.0,4.0,47,0.00,,,0.00,,2013-06-03 22:53:00,
2013-06-03 19:02:00,67.0,46.0,29.94,West,259,2.0,4.0,47,0.00,,,0.00,,2013-06-03 23:02:00,
2013-06-03 19:12:00,67.0,46.0,29.94,West,259,2.0,4.0,47,0.00,,,0.00,,2013-06-03 23:12:00,
2013-06-03 19:23:00,67.0,44.0,29.95,SSW,213,0.0,3.0,43,0.00,,,0.00,,2013-06-03 23:23:00,
2013-06-03 19:32:00,67.0,44.0,29.95,West,259,0.0,6.0,44,0.00,,,0.00,,2013-06-03 23:32:00,
2013-06-03 19:42:00,67.0,44.0,29.95,West,259,0.0,6.0,44,0.00,,,0.00,,2013-06-03 23:42:00,
2013-06-03 19:52:00,67.0,43.0,29.95,NE,34,0.0,3.0,42,0.00,,,0.00,,2013-06-03 23:52:00,
2013-06-03 20:02:00,66.0,43.0,29.96,North,355,0.0,2.0,43,0.00,,,0.00,,2013-06-04 00:02:00,
2013-06-03 20:12:00,66.0,43.0,29.96,North,355,0.0,2.0,43,0.00,,,0.00,,2013-06-04 00:12:00,
2013-06-03 20:22:00,66.0,43.0,29.97,North,5,0.0,4.0,43,0.00,,,0.00,,2013-06-04 00:22:00,
2013-06-03 20:32:00,64.0,44.0,29.97,WSW,253,1.0,1.0,48,0.00,,,0.00,,2013-06-04 00:32:00,
2013-06-03 20:42:00,64.0,44.0,29.97,WSW,253,1.0,1.0,48,0.00,,,0.00,,2013-06-04 00:42:00,
2013-06-03 20:52:00,64.0,44.0,29.98,WSW,257,0.0,0.0,49,0.00,,,0.00,,2013-06-04 00:52:00,
2013-06-03 21:02:00,62.0,44.0,29.98,WSW,258,0.0,0.0,51,0.00,,,0.00,,2013-06-04 01:02:00,
2013-06-03 21:12:00,62.0,44.0,29.98,WSW,258,0.0,0.0,51,0.00,,,0.00,,2013-06-04 01:12:00,
2013-06-03 21:22:00,61.0,46.0,29.98,WSW,258,0.0,0.0,57,0.00,,,0.00,,2013-06-04 01:22:00,
2013-06-03 21:32:00,59.0,46.0,29.99,WSW,257,0.0,0.0,63,0.00,,,0.00,,2013-06-04 01:32:00,
2013-06-03 21:42:00,59.0,46.0,29.99,WSW,257,0.0,0.0,63,0.00,,,0.00,,2013-06-04 01:42:00,
2013-06-03 21:52:00,57.0,46.0,29.99,WSW,258,0.0,0.0,66,0.00,,,0.00,,2013-06-04 01:52:00,
2013-06-03 22:02:00,55.0,45.0,30.00,WSW,258,0.0,0.0,68,0.00,,,0.00,,2013-06-04 02:02:00,
2013-06-03 22:12:00,55.0,45.0,30.00,WSW,258,0.0,0.0,68,0.00,,,0.00,,2013-06-04 02:12:00,
2013-06-03 22:22:00,55.0,45.0,30.01,WSW,257,0.0,0.0,70,0.00,,,0.00,,2013-06-04 02:22:00,
2013-06-03 22:32:00,53.0,46.0,30.01,WSW,257,0.0,0.0,76,0.00,,,0.00,,2013-06-04 02:32:00,
2013-06-03 22:42:00,53.0,46.0,30.01,WSW,257,0.0,0.0,76,0.00,,,0.00,,2013-06-04 02:42:00,
2013-06-03 22:52:00,52.0,45.0,30.02,WSW,258,0.0,0.0,77,0.00,,,0.00,,2013-06-04 02:52:00,
2013-06-03 23:02:00,51.0,45.0,30.03,WSW,258,0.0,0.0,79,0.00,,,0.00,,2013-06-04 03:02:00,
2013-06-03 23:12:00,51.0,45.0,30.03,WSW,258,0.0,0.0,79,0.00,,,0.00,,2013-06-04 03:12:00,
2013-06-03 23:22:00,51.0,46.0,30.03,WSW,258,0.0,0.0,82,0.00,,,0.00,,2013-06-04 03:22:00,
2013-06-03 23:32:00,50.0,45.0,30.03,WSW,257,0.0,0.0,82,0.00,,,0.00,,2013-06-04 03:32:00,
2013-06-03 23:43:00,50.0,45.0,30.03,WSW,257,0.0,0.0,82,0.00,,,0.00,,2013-06-04 03:43:00,
2013-06-03 23:53:00,50.0,45.0,30.04,WSW,258,0.0,0.0,83,0.00,,,0.00,,2013-06-04 03:53:00,